Temp
14 14 15 15 15 14 15 15 15 16 16 17 16 17 16 17 17 18 20 23 23 23 22 23 21 21 21 21 21 21 17 17 19 21 22 25 24 26 28 28 28 28 28 28 26
12 13 13 13 14 14 14 14 15 15 15 15 16 16 16 17 17 20 25 23 23 22 22 22 21 21 20 20 21 20 16 20 22 22 22 24 24 25 26 26 27 26 27 27 25
9 9 10 11 11 12 13 14 14 14 14 15 15 15 15 15 16 22 22 23 24 22 21 21 21 21 19 21 21 21 20 22 22 23 24 24 25 25 26 25 27 26 26 26 25
6 7 7 8 10 11 11 12 13 13 14 14 14 14 14 14 15 21 21 22 22 22 20 20 20 20 19 19 22 19 22 22 23 24 24 24 25 25 27 27 28 28 26 25 24
6 6 6 7 8 10 11 12 11 12 13 13 14 14 14 13 14 21 21 21 21 21 21 20 19 20 18 20 21 20 21 23 24 24 24 25 24 25 26 28 28 27 26 26 25
5 5 6 6 6 6 7 10 12 11 10 11 12 13 11 8 18 20 21 20 20 20 21 20 20 21 20 21 20 22 22 23 24 24 24 24 25 25 27 28 28 27 27 26 25
5 5 5 6 6 6 6 5 7 11 10 9 9 9 8 12 18 18 18 20 21 20 20 21 21 21 21 19 22 22 21 22 23 24 23 25 23 24 27 28 28 26 27 26 26
4 4 5 5 5 6 6 7 9 9 9 8 7 6 5 15 17 18 19 19 18 19 19 21 21 20 20 21 21 20 20 19 22 23 24 23 22 24 27 27 26 27 27 26 25
5 6 6 5 5 5 6 9 9 9 7 6 6 6 7 14 17 21 20 19 19 19 19 21 20 20 20 19 18 18 19 19 20 22 23 22 23 25 27 26 25 27 27 26 26
5 5 6 6 5 5 6 7 9 8 7 6 5 6 11 16 17 19 20 19 19 20 20 19 20 17 16 16 17 19 18 20 21 23 23 23 22 24 25 25 25 27 28 27 26
4 4 5 5 5 5 6 6 7 6 5 6 8 12 16 17 18 19 19 18 17 19 17 19 17 17 19 20 21 20 19 19 22 23 23 22 23 24 24 23 24 26 27 27 27
5 5 4 3 4 6 5 5 6 5 5 6 8 8 14 15 13 18 18 16 16 16 18 18 18 20 21 21 20 19 19 20 22 23 22 22 22 24 23 22 24 26 27 26 24
3 4 5 4 3 5 5 6 5 5 5 7 9 10 9 12 13 15 17 17 17 16 18 18 20 21 20 19 19 19 20 20 21 22 22 21 21 21 24 24 25 25 26 24 24
3 3 3 4 4 4 6 5 6 5 4 8 10 12 12 12 14 17 18 19 18 17 18 18 20 20 20 19 20 19 22 22 22 21 19 21 18 20 23 23 23 24 25 25 23
3 3 3 3 3 4 5 6 7 6 5 13 14 14 14 13 17 17 19 18 18 18 18 18 19 19 19 20 21 20 22 21 21 21 19 21 19 20 20 23 23 21 23 23 24
3 3 3 3 3 5 4 6 7 6 5 11 17 15 14 14 18 19 18 19 20 19 19 19 21 20 20 21 21 22 21 21 21 20 18 21 19 22 20 22 23 22 21 23 21
3 3 3 2 4 4 4 5 5 5 11 13 12 13 14 14 15 18 17 17 17 17 17 19 19 20 22 20 21 21 19 17 14 16 18 19 18 19 20 20 23 22 21 20 20
3 3 3 3 4 3 3 4 5 8 9 12 12 13 14 16 16 17 17 17 17 19 17 17 17 19 21 21 20 20 19 18 17 16 18 20 20 22 22 23 25 25 23 20 20
3 3 4 5 3 3 3 4 5 8 10 9 10 12 12 12 12 16 16 18 18 18 17 17 18 21 22 22 21 20 20 22 19 19 19 19 21 21 22 20 19 18 19 19 20
3 3 4 4 3 2 2 4 5 8 9 9 8 9 8 10 10 10 15 18 18 19 18 18 17 21 22 22 22 21 21 20 16 18 18 18 20 19 22 20 18 17 16 18 18
3 2 4 4 3 2 2 3 6 7 8 8 8 8 8 7 8 10 13 15 17 19 20 18 17 18 21 20 21 20 20 20 19 17 17 16 18 18 21 19 18 18 18 19 19
2 1 4 4 2 1 2 4 5 7 7 7 8 9 8 6 7 9 11 14 12 12 17 19 16 17 19 21 22 22 21 19 21 19 18 17 19 20 19 19 20 18 19 20 19
1 2 4 3 1 2 3 5 5 6 7 7 8 9 9 8 7 9 11 12 12 12 13 18 18 15 17 20 20 21 22 20 17 16 17 19 18 21 19 19 20 19 19 19 19
1 1 3 2 2 3 3 3 4 7 6 8 8 8 8 9 9 8 8 11 10 11 12 11 17 18 18 20 21 21 22 21 18 17 17 20 21 23 20 20 18 19 19 19 19
1 1 3 0 1 2 2 4 4 5 6 7 7 7 7 7 8 8 10 8 9 11 10 9 16 19 20 21 21 22 23 22 23 20 21 20 19 21 19 20 19 19 19 18 18
1 1 1 2 2 2 3 3 4 5 6 6 6 8 8 7 7 7 8 7 8 9 9 8 10 18 19 21 22 21 22 23 23 20 20 21 20 20 22 22 19 19 19 18 18
1 1 1 2 1 1 2 4 3 5 5 7 7 6 6 8 9 8 7 7 8 7 7 7 9 12 18 21 21 20 22 23 23 22 21 21 21 19 20 20 20 19 20 19 19
Height
1525 1525 1522 1521 1519 1519 1519 1519 1518 1516 1516 1516 1518 1517 1516 1513 1513 1511 1507 1506 1511 1513 1514 1515 1518 1518 1523 1522 1523 1526 1534 1532 1522 1515 1505 1490 1495 1493 1493 1490 1489 1485 1482 1480 1482
1521 1520 1519 1517 1515 1514 1513 1512 1511 1511 1511 1512 1513 1513 1513 1507 1503 1501 1502 1502 1506 1508 1507 1510 1511 1516 1518 1516 1519 1520 1528 1515 1498 1503 1501 1495 1493 1491 1490 1485 1483 1480 1478 1478 1480
1517 1516 1514 1513 1512 1510 1508 1506 1505 1506 1507 1506 1507 1508 1508 1503 1501 1493 1497 1495 1498 1499 1503 1508 1511 1513 1515 1514 1510 1507 1508 1498 1499 1498 1497 1494 1490 1488 1486 1483 1478 1477 1477 1476 1477
1512 1510 1508 1507 1505 1504 1502 1502 1501 1501 1501 1501 1501 1501 1501 1500 1502 1490 1493 1490 1493 1494 1499 1503 1507 1509 1508 1509 1496 1507 1498 1496 1491 1492 1492 1489 1486 1483 1480 1477 1474 1473 1474 1473 1474
1508 1506 1504 1501 1499 1498 1497 1496 1497 1496 1494 1493 1494 1494 1494 1490 1479 1489 1490 1490 1491 1490 1492 1496 1500 1501 1502 1497 1500 1498 1488 1488 1488 1488 1486 1484 1481 1478 1472 1470 1470 1471 1471 1469 1470
1507 1503 1500 1497 1494 1492 1491 1490 1490 1489 1489 1489 1488 1486 1486 1477 1477 1480 1486 1486 1488 1490 1490 1494 1491 1493 1496 1494 1497 1481 1485 1484 1483 1482 1481 1479 1473 1473 1466 1465 1465 1466 1466 1465 1466
1504 1501 1497 1494 1490 1487 1485 1483 1483 1483 1483 1483 1482 1479 1474 1454 1469 1473 1474 1477 1480 1483 1485 1488 1490 1493 1490 1493 1488 1484 1485 1480 1479 1477 1473 1474 1469 1463 1460 1460 1460 1460 1459 1460 1460
1500 1497 1493 1489 1485 1481 1477 1474 1473 1472 1474 1474 1474 1472 1454 1456 1461 1463 1470 1469 1472 1477 1480 1484 1485 1486 1489 1487 1484 1483 1481 1485 1471 1470 1465 1473 1470 1454 1452 1454 1454 1455 1455 1454 1455
1498 1493 1490 1485 1481 1476 1472 1468 1465 1464 1467 1469 1472 1470 1454 1451 1446 1449 1455 1461 1468 1472 1476 1478 1479 1482 1485 1488 1493 1485 1488 1481 1472 1466 1463 1466 1461 1448 1446 1447 1446 1446 1448 1449 1449
1495 1491 1487 1483 1479 1475 1469 1463 1458 1458 1461 1466 1467 1470 1448 1435 1434 1437 1445 1453 1461 1466 1471 1471 1473 1477 1482 1484 1489 1481 1484 1473 1469 1454 1460 1459 1457 1444 1439 1440 1437 1438 1441 1441 1441
1491 1487 1484 1481 1477 1473 1467 1462 1463 1461 1459 1448 1442 1432 1431 1430 1437 1437 1440 1446 1457 1461 1463 1461 1468 1467 1463 1461 1462 1469 1473 1472 1456 1445 1460 1457 1451 1437 1433 1431 1431 1432 1434 1433 1435
1489 1484 1480 1476 1474 1472 1468 1465 1466 1468 1453 1441 1436 1436 1430 1435 1438 1431 1437 1442 1448 1449 1454 1458 1449 1447 1455 1457 1461 1465 1469 1467 1454 1445 1458 1451 1448 1434 1427 1426 1425 1425 1426 1428 1431
1485 1482 1478 1474 1470 1469 1466 1465 1463 1463 1456 1430 1425 1419 1428 1432 1432 1420 1431 1432 1434 1444 1443 1442 1436 1445 1451 1454 1458 1457 1463 1460 1461 1446 1447 1452 1450 1439 1420 1420 1422 1423 1424 1425 1425
1482 1478 1475 1472 1470 1466 1464 1463 1462 1459 1457 1422 1411 1400 1415 1427 1417 1415 1420 1425 1428 1432 1438 1436 1437 1439 1443 1446 1449 1456 1446 1448 1452 1458 1472 1443 1471 1444 1423 1420 1418 1416 1417 1418 1419
1479 1475 1472 1470 1467 1464 1463 1459 1459 1458 1464 1401 1398 1395 1394 1397 1392 1398 1409 1417 1416 1420 1432 1419 1426 1434 1438 1435 1438 1440 1441 1445 1444 1453 1459 1445 1463 1441 1425 1422 1416 1412 1412 1413 1416
1475 1471 1468 1466 1464 1461 1459 1457 1457 1462 1452 1403 1391 1396 1395 1392 1386 1386 1392 1407 1410 1415 1414 1416 1416 1422 1424 1428 1431 1429 1441 1442 1445 1452 1468 1447 1457 1432 1431 1419 1411 1407 1410 1411 1415
1470 1466 1464 1462 1459 1460 1459 1457 1461 1454 1420 1404 1402 1399 1392 1391 1391 1382 1390 1399 1403 1418 1418 1417 1417 1415 1416 1425 1424 1431 1446 1469 1484 1475 1460 1441 1452 1433 1412 1408 1407 1407 1410 1413 1416
1465 1461 1458 1456 1456 1458 1459 1460 1452 1432 1426 1412 1409 1395 1388 1384 1389 1387 1388 1390 1393 1393 1406 1418 1423 1407 1402 1410 1420 1424 1435 1452 1471 1473 1455 1433 1442 1420 1398 1395 1397 1401 1406 1412 1417
1460 1456 1452 1451 1452 1456 1460 1456 1447 1434 1429 1426 1414 1404 1399 1397 1399 1383 1382 1379 1377 1382 1397 1407 1408 1388 1392 1401 1409 1414 1424 1420 1441 1441 1446 1438 1420 1404 1395 1398 1401 1403 1407 1410 1415
1457 1452 1449 1448 1450 1454 1458 1452 1446 1439 1436 1432 1429 1422 1422 1413 1409 1402 1381 1369 1376 1377 1383 1391 1407 1385 1385 1394 1395 1399 1407 1430 1442 1456 1455 1441 1427 1428 1405 1406 1407 1408 1406 1411 1417
1457 1453 1450 1449 1451 1454 1455 1453 1446 1441 1441 1436 1433 1430 1431 1425 1418 1409 1390 1382 1377 1378 1379 1383 1393 1390 1382 1383 1384 1401 1409 1412 1416 1427 1446 1458 1433 1402 1400 1400 1403 1403 1403 1409 1414
1458 1456 1452 1450 1452 1454 1453 1450 1447 1440 1438 1435 1431 1428 1429 1433 1419 1415 1399 1387 1392 1393 1379 1371 1390 1400 1378 1368 1371 1384 1391 1400 1409 1424 1420 1430 1421 1387 1387 1392 1394 1399 1403 1408 1413
1458 1454 1451 1452 1456 1452 1450 1445 1443 1438 1436 1431 1429 1427 1424 1424 1424 1412 1400 1388 1392 1393 1388 1373 1378 1402 1388 1377 1370 1374 1375 1383 1394 1405 1416 1424 1421 1384 1386 1389 1392 1396 1403 1408 1413
1460 1458 1452 1449 1450 1452 1449 1444 1440 1435 1432 1425 1425 1424 1422 1416 1416 1412 1409 1395 1395 1394 1389 1384 1366 1369 1376 1364 1362 1371 1367 1371 1383 1408 1411 1402 1400 1388 1392 1390 1394 1396 1399 1405 1410
1462 1459 1456 1455 1451 1450 1448 1441 1439 1436 1429 1425 1423 1420 1419 1419 1413 1411 1407 1407 1398 1389 1387 1385 1363 1355 1351 1354 1354 1355 1355 1362 1366 1374 1388 1393 1398 1389 1390 1387 1387 1391 1399 1405 1410
1464 1461 1457 1452 1449 1447 1443 1440 1436 1430 1429 1421 1419 1416 1414 1417 1415 1412 1411 1415 1408 1388 1391 1387 1377 1351 1356 1347 1350 1359 1351 1351 1357 1367 1374 1377 1386 1373 1375 1382 1389 1391 1397 1402 1406
1463 1461 1458 1451 1448 1447 1444 1439 1436 1432 1424 1419 1420 1418 1414 1410 1407 1407 1409 1409 1407 1402 1400 1399 1387 1373 1355 1345 1349 1364 1347 1346 1348 1352 1362 1379 1370 1368 1378 1380 1382 1388 1391 1394 1400
Wind_Speed
23 24 25 26 26 25 25 24 23 24 23 21 20 19 20 23 22 22 32 26 20 18 17 16 25 20 17 16 22 12 2 8 7 7 10 30 3 29 15 7 9 10 14 19 16
20 22 25 26 26 27 27 27 26 25 25 24 23 21 20 23 26 31 28 25 23 20 25 24 26 23 21 11 11 10 6 12 15 10 10 23 12 22 8 14 13 22 15 14 25
22 22 22 23 24 25 27 27 28 27 26 25 25 22 19 20 25 33 17 15 18 26 27 28 21 23 22 20 16 12 16 19 24 26 28 25 25 27 9 6 18 22 13 22 27
19 20 22 24 25 25 25 26 26 27 26 25 26 24 19 16 7 5 11 4 2 22 27 24 26 19 8 14 39 7 21 30 34 34 29 20 31 24 18 17 26 25 21 26 30
19 19 20 21 23 25 26 26 25 26 26 26 26 25 21 18 27 10 14 9 5 11 32 31 26 29 15 14 17 13 25 31 31 31 35 35 23 23 20 26 27 22 20 29 30
19 20 20 21 22 22 23 25 24 23 22 23 25 25 22 19 35 35 33 30 19 12 21 31 25 30 9 26 16 18 24 28 30 32 35 26 27 18 24 25 27 27 26 27 30
20 20 21 22 21 21 22 23 23 20 21 19 20 21 27 42 25 16 22 34 34 29 24 25 36 17 15 9 30 24 21 20 22 22 19 28 18 13 29 29 29 25 24 26 29
21 21 21 23 24 24 23 22 24 22 15 15 16 18 19 33 28 39 29 25 24 20 27 21 21 33 33 16 16 7 5 9 11 15 29 11 24 16 32 30 30 26 27 29 30
22 23 22 23 24 26 25 22 20 23 13 14 15 15 18 15 29 37 37 37 27 26 25 22 20 24 10 16 11 5 13 17 13 12 12 9 22 19 32 30 29 30 29 30 33
23 23 23 22 23 24 27 28 20 15 14 11 12 6 21 18 26 27 29 38 36 28 25 24 15 8 5 5 13 12 11 5 17 21 8 14 16 20 32 27 29 33 28 30 31
25 25 24 22 22 22 24 21 3 2 12 16 16 20 3 12 8 16 16 33 25 19 10 25 11 16 26 23 14 8 6 9 20 24 5 12 15 23 18 18 20 28 32 33 24
24 24 26 22 20 16 14 7 10 10 13 25 43 36 38 19 10 18 14 19 20 17 14 8 24 23 16 15 12 12 14 18 21 23 7 17 18 21 9 7 21 30 34 33 19
25 21 22 23 23 10 11 11 14 25 8 17 31 37 40 30 17 30 23 21 11 17 21 22 8 18 16 14 13 16 17 17 18 20 16 10 15 9 5 6 14 23 27 20 23
23 23 20 20 17 8 14 8 14 6 4 7 11 15 29 25 14 45 22 21 8 25 22 18 21 16 22 18 17 19 16 19 15 12 8 6 7 5 6 6 5 14 15 19 28
22 21 20 15 20 18 12 14 12 7 4 5 5 7 18 32 17 26 48 31 21 17 19 16 20 25 21 24 21 18 18 18 20 14 9 22 4 8 6 6 9 10 11 19 31
22 21 18 18 18 10 12 10 6 2 8 7 7 5 5 28 17 10 37 28 27 17 18 26 9 20 23 18 22 23 10 12 12 8 11 15 7 15 5 8 5 2 17 31 34
22 19 16 17 18 9 11 9 1 6 8 1 11 20 18 14 20 8 22 26 13 18 23 14 24 17 15 21 19 13 10 4 3 3 11 9 6 10 6 8 8 9 20 26 31
24 21 18 18 12 7 5 1 8 7 15 19 20 22 8 6 6 23 13 25 24 16 11 17 12 26 20 20 18 19 14 8 7 6 4 6 5 10 9 6 13 19 26 28 30
24 20 21 9 7 9 2 6 4 3 9 17 20 10 11 20 13 10 22 26 24 21 12 16 15 9 21 18 19 14 15 21 4 3 2 4 7 9 7 6 6 16 25 30 32
21 18 8 2 8 10 2 6 4 11 18 15 10 11 19 19 13 16 5 17 20 25 10 5 4 15 16 15 24 25 6 7 2 10 6 4 4 5 1 7 6 8 16 28 30
14 9 7 2 10 5 2 5 7 14 16 8 13 15 14 16 12 7 7 11 2 15 22 9 3 5 15 21 27 10 10 6 5 6 8 3 7 8 13 11 16 13 26 33 35
9 3 6 6 2 1 2 3 8 16 22 15 10 12 9 6 11 8 8 10 28 20 12 24 5 11 21 4 16 15 15 10 8 5 2 6 9 4 11 15 17 16 28 34 36
13 6 5 7 1 2 4 7 9 17 15 5 7 7 8 7 5 8 12 18 20 18 8 10 15 6 7 2 7 15 14 8 5 5 8 7 7 3 5 12 19 22 25 33 35
5 3 3 4 1 3 3 7 4 9 11 11 3 5 7 10 9 10 15 12 37 24 19 12 6 26 14 12 5 6 18 13 8 5 6 8 5 4 2 14 9 19 31 37 39
3 3 4 3 3 5 4 5 11 7 8 15 2 4 7 4 10 16 15 20 20 11 17 10 12 20 29 16 3 6 17 17 16 12 11 7 10 8 10 16 19 30 30 31 36
4 4 6 9 12 4 4 4 14 11 7 9 5 9 13 7 12 15 11 14 11 10 16 9 6 11 22 28 26 16 13 22 15 8 8 12 8 8 18 17 16 25 29 31 36
7 8 9 6 4 2 2 7 11 12 12 11 14 4 10 11 11 13 13 14 23 17 17 5 5 6 20 16 18 17 19 17 17 14 12 10 7 8 7 15 20 25 34 36 39
Wind_Direction
278 277 276 278 282 280 278 278 278 281 283 279 280 282 287 283 282 274 263 256 260 248 248 231 217 210 211 221 214 204 160 254 239 229 252 281 351 302 302 323 282 251 247 259 203
279 276 276 277 276 276 276 277 277 274 276 278 277 278 281 287 289 276 272 275 258 246 234 222 213 202 213 230 213 187 189 236 236 256 274 283 281 290 294 316 309 314 285 228 183
295 289 282 276 275 276 277 276 276 275 273 273 273 272 276 284 294 279 288 261 248 221 225 224 221 213 222 226 219 207 226 242 265 261 268 269 283 282 279 293 294 290 210 181 186
302 298 294 290 284 278 275 274 273 274 274 272 270 268 265 264 233 169 180 134 272 216 212 219 217 213 211 221 236 266 243 244 253 263 268 267 276 271 253 275 292 290 243 198 188
306 301 296 294 291 287 281 275 272 269 269 272 270 266 261 241 233 202 215 266 318 206 208 217 215 223 221 239 243 236 242 248 255 264 267 270 260 257 250 277 282 287 223 202 204
336 322 310 301 294 288 284 283 273 269 270 268 266 264 258 244 252 251 241 256 256 256 225 218 221 224 270 237 236 238 250 254 259 263 267 265 269 252 257 280 276 275 225 207 209
332 333 331 325 317 304 291 281 279 268 263 265 267 271 256 247 246 251 242 238 240 247 236 235 233 222 229 270 256 257 258 264 261 254 259 270 269 248 268 268 269 235 221 209 211
329 327 326 327 323 316 311 296 275 268 269 265 275 270 260 260 263 250 234 230 226 223 229 239 251 232 244 263 294 297 272 258 247 260 262 238 269 273 269 262 251 233 218 217 213
328 329 327 325 322 321 315 308 299 269 257 252 263 248 276 255 245 252 238 230 222 222 232 218 236 218 226 228 266 229 257 260 279 245 260 208 266 268 275 252 235 238 240 233 235
322 319 321 323 322 323 318 317 306 249 240 229 235 273 249 236 245 247 240 221 226 220 225 223 217 183 229 157 219 220 237 223 255 259 254 268 264 270 264 244 227 227 236 244 243
324 321 315 312 316 326 324 339 4 17 220 209 207 203 73 237 234 238 241 212 210 231 204 201 209 213 217 217 228 242 236 246 262 268 277 267 269 271 257 241 219 222 235 245 248
321 319 318 313 313 319 319 331 20 327 289 258 250 244 243 244 305 231 213 174 188 213 202 207 221 218 223 224 217 229 241 249 272 270 261 274 281 287 252 225 220 220 234 244 226
324 321 315 312 313 304 291 301 344 334 266 274 243 240 231 250 238 257 198 190 189 199 208 211 227 204 210 222 226 227 229 243 243 276 279 276 279 265 292 226 231 241 247 247 209
323 320 318 311 310 284 301 298 312 9 278 268 211 244 211 223 254 234 215 193 202 206 209 233 221 202 211 221 214 234 226 241 251 255 257 140 281 277 237 259 246 271 284 243 194
321 319 314 300 295 295 309 276 321 153 300 229 213 208 201 185 139 209 216 206 201 183 189 211 196 217 224 215 216 228 223 233 244 247 259 280 295 267 270 268 266 287 262 202 188
321 317 310 290 280 303 308 301 341 83 250 300 89 338 178 208 214 168 189 201 209 202 212 218 201 209 219 221 220 231 238 238 255 242 253 243 216 268 221 226 252 228 197 184 187
319 316 301 284 272 305 300 324 228 218 310 184 339 341 307 204 217 219 185 191 190 192 217 214 223 237 203 216 229 212 202 248 284 198 241 210 184 239 228 230 223 193 203 191 188
321 315 304 280 274 274 356 252 242 242 260 309 346 325 298 30 259 231 183 196 208 198 180 211 228 212 218 212 213 221 211 204 185 222 239 203 228 260 226 253 230 196 193 184 181
325 323 309 311 249 170 198 222 243 301 308 344 345 325 351 0 343 211 222 207 201 202 188 195 227 244 206 211 206 222 213 224 203 315 137 214 282 320 267 151 136 137 160 172 182
335 329 351 9 165 184 152 254 296 339 322 326 333 348 340 336 335 349 210 224 219 210 191 231 222 226 203 196 230 219 142 231 303 203 212 265 247 231 151 149 148 155 155 169 178
346 327 346 172 163 166 212 245 302 285 316 332 321 317 329 323 317 313 301 51 332 220 218 216 134 302 208 203 209 199 201 201 175 166 192 211 260 199 203 177 172 173 167 174 178
346 327 10 185 71 104 241 233 278 283 296 292 278 309 323 306 298 298 274 305 357 341 240 210 179 238 241 298 200 209 205 180 213 233 167 158 257 244 218 171 165 169 174 180 179
329 282 351 241 170 232 247 259 280 278 278 272 296 310 297 285 288 311 307 334 340 344 348 232 217 259 324 252 240 202 201 178 143 121 187 168 256 4 127 149 169 161 176 177 178
330 323 354 257 290 295 271 278 269 300 308 291 264 289 310 267 253 276 297 317 335 320 333 324 212 207 220 221 164 198 198 188 145 142 164 196 206 200 219 152 168 170 174 178 179
337 282 352 306 312 286 280 274 291 298 256 281 233 231 279 291 289 267 290 320 319 299 350 5 218 205 222 234 236 217 212 189 188 180 173 201 189 215 194 174 180 175 172 167 174
324 323 326 289 283 288 287 315 301 313 282 307 257 282 290 252 272 284 280 305 292 313 347 338 299 204 221 224 236 247 232 194 190 175 142 178 208 201 190 177 150 172 167 173 180
322 315 313 289 298 340 248 319 300 311 283 292 310 283 281 275 244 247 235 256 263 278 296 276 335 338 222 218 231 234 234 207 181 174 150 182 202 165 144 174 176 175 177 182 185